Time,TemperatureF,DewpointF,PressureIn,WindDirection,WindDirectionDegrees,WindSpeedMPH,WindSpeedGustMPH,Humidity,HourlyPrecipIn,Conditions,Clouds,dailyrainin,SoftwareType,DateUTC
2013-02-23 09:15:00,29.3,23.3,29.93,West,267,11.0,11.0,78,0.00,,,0.00,Wunderground v.1.15,2013-02-23 14:15:00,
2013-02-23 09:16:00,29.3,23.3,29.93,WSW,252,11.0,14.0,78,0.00,,,0.00,Wunderground v.1.15,2013-02-23 14:16:00,
2013-02-23 09:21:00,29.3,23.6,29.93,West,266,13.0,19.0,79,0.00,,,0.00,Wunderground v.1.15,2013-02-23 14:21:00,
2013-02-23 09:23:00,29.3,23.6,29.93,West,273,12.0,19.0,79,0.00,,,0.00,Wunderground v.1.15,2013-02-23 14:23:00,
2013-02-23 09:24:00,29.3,23.6,29.93,WSW,246,13.0,19.0,79,0.00,,,0.00,Wunderground v.1.15,2013-02-23 14:24:00,
2013-02-23 09:26:00,29.3,23.3,29.93,WSW,250,14.0,15.0,78,0.00,,,0.00,Wunderground v.1.15,2013-02-23 14:26:00,
2013-02-23 09:29:00,29.3,23.9,29.93,WSW,239,14.0,16.0,80,0.00,,,0.00,Wunderground v.1.15,2013-02-23 14:29:00,
2013-02-23 09:31:00,29.4,23.7,29.93,WSW,255,14.0,16.0,79,0.00,,,0.00,Wunderground v.1.15,2013-02-23 14:31:00,
2013-02-23 09:34:00,29.4,23.7,29.93,WSW,256,12.0,16.0,79,0.00,,,0.00,Wunderground v.1.15,2013-02-23 14:34:00,
2013-02-23 09:36:00,29.4,23.7,29.93,West,272,12.0,16.0,79,0.00,,,0.00,Wunderground v.1.15,2013-02-23 14:36:00,
2013-02-23 09:38:00,29.4,23.7,29.93,West,261,13.0,18.0,79,0.00,,,0.00,Wunderground v.1.15,2013-02-23 14:38:00,
2013-02-23 09:39:00,29.3,23.6,29.93,WSW,254,13.0,18.0,79,0.00,,,0.00,Wunderground v.1.15,2013-02-23 14:39:00,
2013-02-23 09:43:00,29.3,23.9,29.93,WSW,255,14.0,18.0,80,0.00,,,0.00,Wunderground v.1.15,2013-02-23 14:43:00,
2013-02-23 09:45:00,29.3,23.9,29.93,West,264,14.0,14.0,80,0.00,,,0.00,Wunderground v.1.15,2013-02-23 14:45:00,
2013-02-23 09:46:00,29.3,23.9,29.92,West,279,14.0,14.0,80,0.00,,,0.00,Wunderground v.1.15,2013-02-23 14:46:00,
2013-02-23 09:48:00,29.3,23.6,29.92,SW,235,13.0,14.0,79,0.00,,,0.00,Wunderground v.1.15,2013-02-23 14:48:00,
2013-02-23 09:49:00,29.4,24.0,29.92,WSW,244,13.0,14.0,80,0.00,,,0.00,Wunderground v.1.15,2013-02-23 14:49:00,
2013-02-23 09:50:00,29.4,24.0,29.92,West,271,12.0,14.0,80,0.00,,,0.00,Wunderground v.1.15,2013-02-23 14:50:00,
2013-02-23 09:54:00,29.4,24.0,29.92,WSW,246,11.0,15.0,80,0.00,,,0.00,Wunderground v.1.15,2013-02-23 14:54:00,
2013-02-23 09:55:00,29.4,24.3,29.92,West,271,11.0,11.0,81,0.00,,,0.00,Wunderground v.1.15,2013-02-23 14:55:00,
2013-02-23 09:58:00,29.4,24.0,29.92,West,271,11.0,12.0,80,0.00,,,0.00,Wunderground v.1.15,2013-02-23 14:58:00,
2013-02-23 10:00:00,29.4,24.0,29.92,WSW,257,11.0,11.0,80,0.00,,,0.00,Wunderground v.1.15,2013-02-23 15:00:00,
2013-02-23 10:03:00,29.4,24.3,29.92,WSW,237,11.0,11.0,81,0.00,,,0.00,Wunderground v.1.15,2013-02-23 15:03:00,
2013-02-23 10:04:00,29.4,24.3,29.92,SW,235,11.0,11.0,81,0.00,,,0.00,Wunderground v.1.15,2013-02-23 15:04:00,
2013-02-23 10:09:00,29.4,24.0,29.92,SSW,213,11.0,17.0,80,0.00,,,0.00,Wunderground v.1.15,2013-02-23 15:09:00,
2013-02-23 10:10:00,29.4,24.0,29.92,West,267,11.0,15.0,80,0.00,,,0.00,Wunderground v.1.15,2013-02-23 15:10:00,
2013-02-23 10:12:00,29.4,24.3,29.92,WSW,253,10.0,15.0,81,0.00,,,0.00,Wunderground v.1.15,2013-02-23 15:12:00,
2013-02-23 10:17:00,29.5,24.1,29.92,West,280,10.0,15.0,80,0.00,,,0.00,Wunderground v.1.15,2013-02-23 15:17:00,
2013-02-23 10:18:00,29.5,24.4,29.92,SW,216,10.0,15.0,81,0.00,,,0.00,Wunderground v.1.15,2013-02-23 15:18:00,
2013-02-23 10:19:00,29.5,24.4,29.92,West,271,9.0,15.0,81,0.00,,,0.00,Wunderground v.1.15,2013-02-23 15:19:00,
2013-02-23 10:22:00,29.6,24.2,29.92,WSW,254,10.0,16.0,80,0.00,,,0.00,Wunderground v.1.15,2013-02-23 15:22:00,
2013-02-23 10:23:00,29.6,24.2,29.92,West,263,10.0,16.0,80,0.00,,,0.00,Wunderground v.1.15,2013-02-23 15:23:00,
2013-02-23 10:24:00,29.6,24.2,29.92,WSW,237,10.0,16.0,80,0.00,,,0.00,Wunderground v.1.15,2013-02-23 15:24:00,
2013-02-23 10:28:00,29.6,24.2,29.92,SW,232,12.0,16.0,80,0.00,,,0.00,Wunderground v.1.15,2013-02-23 15:28:00,
2013-02-23 10:29:00,29.6,24.5,29.92,WSW,237,12.0,16.0,81,0.00,,,0.00,Wunderground v.1.15,2013-02-23 15:29:00,
2013-02-23 10:30:00,29.7,24.3,29.92,SW,235,12.0,12.0,80,0.00,,,0.00,Wunderground v.1.15,2013-02-23 15:30:00,
2013-02-23 10:31:00,29.7,24.3,29.92,SW,228,12.0,12.0,80,0.00,,,0.00,Wunderground v.1.15,2013-02-23 15:31:00,
2013-02-23 10:33:00,29.7,24.3,29.92,WSW,237,12.0,12.0,80,0.00,,,0.00,Wunderground v.1.15,2013-02-23 15:33:00,
2013-02-23 10:36:00,29.7,24.6,29.92,West,267,11.0,14.0,81,0.00,,,0.00,Wunderground v.1.15,2013-02-23 15:36:00,
2013-02-23 10:37:00,29.8,24.7,29.92,West,268,11.0,14.0,81,0.00,,,0.00,Wunderground v.1.15,2013-02-23 15:37:00,
2013-02-23 10:38:00,29.8,24.7,29.92,WSW,254,11.0,14.0,81,0.00,,,0.00,Wunderground v.1.15,2013-02-23 15:38:00,
2013-02-23 10:40:00,29.8,24.4,29.92,West,263,11.0,11.0,80,0.00,,,0.00,Wunderground v.1.15,2013-02-23 15:40:00,
2013-02-23 10:41:00,29.8,24.4,29.92,WSW,252,11.0,13.0,80,0.00,,,0.00,Wunderground v.1.15,2013-02-23 15:41:00,
2013-02-23 10:43:00,29.8,24.4,29.92,West,271,11.0,13.0,80,0.00,,,0.00,Wunderground v.1.15,2013-02-23 15:43:00,
2013-02-23 10:44:00,29.9,24.8,29.92,West,265,11.0,13.0,81,0.00,,,0.00,Wunderground v.1.15,2013-02-23 15:44:00,
2013-02-23 10:46:00,29.9,24.5,29.92,WSW,252,11.0,13.0,80,0.00,,,0.00,Wunderground v.1.15,2013-02-23 15:46:00,
2013-02-23 10:48:00,30.0,24.6,29.92,WSW,255,10.0,13.0,80,0.00,,,0.00,Wunderground v.1.15,2013-02-23 15:48:00,
2013-02-23 10:49:00,30.0,24.6,29.92,WSW,243,10.0,13.0,80,0.00,,,0.00,Wunderground v.1.15,2013-02-23 15:49:00,
2013-02-23 10:52:00,30.1,24.7,29.92,WSW,245,9.0,11.0,80,0.00,,,0.00,Wunderground v.1.15,2013-02-23 15:52:00,
2013-02-23 10:53:00,30.1,24.4,29.92,WSW,252,9.0,11.0,79,0.00,,,0.00,Wunderground v.1.15,2013-02-23 15:53:00,
2013-02-23 10:55:00,30.2,24.8,29.92,WSW,245,8.0,11.0,80,0.00,,,0.00,Wunderground v.1.15,2013-02-23 15:55:00,
2013-02-23 10:58:00,30.3,24.6,29.92,WSW,246,8.0,17.0,79,0.00,,,0.00,Wunderground v.1.15,2013-02-23 15:58:00,
2013-02-23 10:59:00,30.3,24.6,29.92,West,266,9.0,17.0,79,0.00,,,0.00,Wunderground v.1.15,2013-02-23 15:59:00,
2013-02-23 11:00:00,30.3,24.6,29.92,SW,235,9.0,9.0,79,0.00,,,0.00,Wunderground v.1.15,2013-02-23 16:00:00,
2013-02-23 11:03:00,30.3,24.6,29.92,SW,234,10.0,15.0,79,0.00,,,0.00,Wunderground v.1.15,2013-02-23 16:03:00,
2013-02-23 11:05:00,30.4,24.7,29.92,SW,234,10.0,15.0,79,0.00,,,0.00,Wunderground v.1.15,2013-02-23 16:05:00,
2013-02-23 11:06:00,30.4,24.7,29.92,SSW,199,10.0,15.0,79,0.00,,,0.00,Wunderground v.1.15,2013-02-23 16:06:00,
2013-02-23 11:08:00,30.5,24.5,29.92,West,261,11.0,15.0,78,0.00,,,0.00,Wunderground v.1.15,2013-02-23 16:08:00,
2013-02-23 11:09:00,30.5,24.5,29.92,WSW,254,10.0,15.0,78,0.00,,,0.00,Wunderground v.1.15,2013-02-23 16:09:00,
2013-02-23 11:10:00,30.5,24.5,29.92,WSW,251,11.0,14.0,78,0.00,,,0.00,Wunderground v.1.15,2013-02-23 16:10:00,
2013-02-23 11:14:00,30.6,24.2,29.92,WSW,254,11.0,15.0,77,0.00,,,0.00,Wunderground v.1.15,2013-02-23 16:14:00,
2013-02-23 11:15:00,30.6,24.2,29.92,SSW,198,11.0,15.0,77,0.00,,,0.00,Wunderground v.1.15,2013-02-23 16:15:00,
2013-02-23 11:19:00,30.7,24.7,29.92,WSW,257,11.0,15.0,78,0.00,,,0.00,Wunderground v.1.15,2013-02-23 16:19:00,
2013-02-23 11:20:00,30.7,24.3,29.92,SW,234,11.0,11.0,77,0.00,,,0.00,Wunderground v.1.15,2013-02-23 16:20:00,
2013-02-23 11:22:00,30.7,24.3,29.92,West,263,11.0,16.0,77,0.00,,,0.00,Wunderground v.1.15,2013-02-23 16:22:00,
2013-02-23 11:24:00,30.7,24.0,29.92,NW,309,11.0,16.0,76,0.00,,,0.00,Wunderground v.1.15,2013-02-23 16:24:00,
2013-02-23 11:25:00,30.8,24.4,29.92,West,263,11.0,16.0,77,0.00,,,0.00,Wunderground v.1.15,2013-02-23 16:25:00,
2013-02-23 11:28:00,30.8,24.4,29.91,West,268,11.0,16.0,77,0.00,,,0.00,Wunderground v.1.15,2013-02-23 16:28:00,
2013-02-23 11:30:00,30.8,24.4,29.92,WSW,244,12.0,14.0,77,0.00,,,0.00,Wunderground v.1.15,2013-02-23 16:30:00,
2013-02-23 11:33:00,30.8,24.4,29.91,WSW,256,12.0,14.0,77,0.00,,,0.00,Wunderground v.1.15,2013-02-23 16:33:00,
2013-02-23 11:35:00,30.8,24.4,29.91,West,259,12.0,15.0,77,0.00,,,0.00,Wunderground v.1.15,2013-02-23 16:35:00,
2013-02-23 11:38:00,30.8,24.1,29.91,WSW,251,12.0,15.0,76,0.00,,,0.00,Wunderground v.1.15,2013-02-23 16:38:00,
2013-02-23 11:40:00,30.8,24.1,29.91,WSW,255,12.0,13.0,76,0.00,,,0.00,Wunderground v.1.15,2013-02-23 16:40:00,
2013-02-23 11:41:00,30.8,24.1,29.91,WSW,258,11.0,13.0,76,0.00,,,0.00,Wunderground v.1.15,2013-02-23 16:41:00,
2013-02-23 11:43:00,30.8,24.1,29.92,West,265,12.0,14.0,76,0.00,,,0.00,Wunderground v.1.15,2013-02-23 16:43:00,
2013-02-23 11:46:00,30.9,24.2,29.92,West,261,13.0,16.0,76,0.00,,,0.00,Wunderground v.1.15,2013-02-23 16:46:00,
2013-02-23 11:48:00,30.9,24.2,29.92,WSW,241,13.0,16.0,76,0.00,,,0.00,Wunderground v.1.15,2013-02-23 16:48:00,
2013-02-23 11:50:00,30.9,24.2,29.92,WSW,248,13.0,13.0,76,0.00,,,0.00,Wunderground v.1.15,2013-02-23 16:50:00,
2013-02-23 11:53:00,30.9,24.2,29.92,SW,216,12.0,13.0,76,0.00,,,0.00,Wunderground v.1.15,2013-02-23 16:53:00,
2013-02-23 11:55:00,31.0,24.3,29.92,WSW,251,12.0,14.0,76,0.00,,,0.00,Wunderground v.1.15,2013-02-23 16:55:00,
2013-02-23 11:56:00,31.0,24.0,29.92,SW,216,11.0,14.0,75,0.00,,,0.00,Wunderground v.1.15,2013-02-23 16:56:00,
2013-02-23 11:58:00,31.0,23.7,29.92,WSW,253,12.0,15.0,74,0.00,,,0.00,Wunderground v.1.15,2013-02-23 16:58:00,
2013-02-23 11:59:00,31.0,24.0,29.92,West,259,12.0,15.0,75,0.00,,,0.00,Wunderground v.1.15,2013-02-23 16:59:00,
2013-02-23 12:00:00,31.0,24.0,29.92,WSW,248,12.0,12.0,75,0.00,,,0.00,Wunderground v.1.15,2013-02-23 17:00:00,
2013-02-23 12:02:00,31.0,24.0,29.92,West,263,12.0,15.0,75,0.00,,,0.00,Wunderground v.1.15,2013-02-23 17:02:00,
2013-02-23 12:06:00,31.1,23.8,29.92,West,261,13.0,16.0,74,0.00,,,0.00,Wunderground v.1.15,2013-02-23 17:06:00,
2013-02-23 12:07:00,31.1,23.8,29.92,WSW,249,13.0,16.0,74,0.00,,,0.00,Wunderground v.1.15,2013-02-23 17:07:00,
2013-02-23 12:08:00,31.1,23.8,29.92,WSW,255,13.0,16.0,74,0.00,,,0.00,Wunderground v.1.15,2013-02-23 17:08:00,
2013-02-23 12:09:00,31.1,23.8,29.92,NW,314,13.0,16.0,74,0.00,,,0.00,Wunderground v.1.15,2013-02-23 17:09:00,
2013-02-23 12:12:00,31.2,23.9,29.92,West,277,13.0,13.0,74,0.00,,,0.00,Wunderground v.1.15,2013-02-23 17:12:00,
2013-02-23 12:14:00,31.2,23.9,29.92,WSW,246,12.0,13.0,74,0.00,,,0.00,Wunderground v.1.15,2013-02-23 17:14:00,
2013-02-23 12:15:00,31.2,23.5,29.92,West,274,12.0,14.0,73,0.00,,,0.00,Wunderground v.1.15,2013-02-23 17:15:00,
2013-02-23 12:19:00,31.3,24.3,29.91,WSW,242,11.0,14.0,75,0.00,,,0.00,Wunderground v.1.15,2013-02-23 17:19:00,
2013-02-23 12:20:00,31.2,23.9,29.92,WSW,252,11.0,12.0,74,0.00,,,0.00,Wunderground v.1.15,2013-02-23 17:20:00,
2013-02-23 12:23:00,31.2,23.9,29.91,West,275,11.0,12.0,74,0.00,,,0.00,Wunderground v.1.15,2013-02-23 17:23:00,
2013-02-23 12:26:00,31.2,23.5,29.91,West,263,11.0,14.0,73,0.00,,,0.00,Wunderground v.1.15,2013-02-23 17:26:00,
2013-02-23 12:28:00,31.2,23.5,29.91,SW,225,11.0,14.0,73,0.00,,,0.00,Wunderground v.1.15,2013-02-23 17:28:00,
2013-02-23 12:29:00,31.3,23.6,29.91,WSW,241,11.0,14.0,73,0.00,,,0.00,Wunderground v.1.15,2013-02-23 17:29:00,
2013-02-23 12:30:00,31.3,23.6,29.91,SW,224,11.0,11.0,73,0.00,,,0.00,Wunderground v.1.15,2013-02-23 17:30:00,
2013-02-23 12:31:00,31.3,24.0,29.91,SW,221,10.0,11.0,74,0.00,,,0.00,Wunderground v.1.15,2013-02-23 17:31:00,
2013-02-23 12:33:00,31.3,23.6,29.91,WSW,244,10.0,11.0,73,0.00,,,0.00,Wunderground v.1.15,2013-02-23 17:33:00,
2013-02-23 12:36:00,31.4,23.7,29.91,WSW,249,8.0,11.0,73,0.00,,,0.00,Wunderground v.1.15,2013-02-23 17:36:00,
2013-02-23 12:38:00,31.4,24.1,29.91,WSW,248,8.0,13.0,74,0.00,,,0.00,Wunderground v.1.15,2013-02-23 17:38:00,
2013-02-23 12:41:00,31.4,23.7,29.91,SW,221,9.0,10.0,73,0.00,,,0.00,Wunderground v.1.15,2013-02-23 17:41:00,
2013-02-23 12:42:00,31.4,23.7,29.91,West,262,9.0,10.0,73,0.00,,,0.00,Wunderground v.1.15,2013-02-23 17:42:00,
2013-02-23 12:43:00,31.4,23.4,29.91,WSW,257,9.0,14.0,72,0.00,,,0.00,Wunderground v.1.15,2013-02-23 17:43:00,
2013-02-23 12:45:00,31.4,23.7,29.91,WSW,258,9.0,14.0,73,0.00,,,0.00,Wunderground v.1.15,2013-02-23 17:45:00,
2013-02-23 12:47:00,31.4,23.7,29.90,WSW,241,10.0,14.0,73,0.00,,,0.00,Wunderground v.1.15,2013-02-23 17:47:00,
2013-02-23 12:48:00,31.4,23.7,29.91,SW,225,9.0,14.0,73,0.00,,,0.00,Wunderground v.1.15,2013-02-23 17:48:00,
2013-02-23 12:52:00,31.4,23.7,29.91,WSW,246,10.0,14.0,73,0.00,,,0.00,Wunderground v.1.15,2013-02-23 17:52:00,
2013-02-23 12:54:00,31.4,23.7,29.91,WNW,285,10.0,15.0,73,0.00,,,0.00,Wunderground v.1.15,2013-02-23 17:54:00,
2013-02-23 12:55:00,31.4,23.4,29.91,West,270,10.0,15.0,72,0.00,,,0.00,Wunderground v.1.15,2013-02-23 17:55:00,
2013-02-23 12:57:00,31.4,23.7,29.91,West,270,12.0,15.0,73,0.00,,,0.00,Wunderground v.1.15,2013-02-23 17:57:00,
2013-02-23 12:59:00,31.4,23.4,29.91,West,265,12.0,15.0,72,0.00,,,0.00,Wunderground v.1.15,2013-02-23 17:59:00,
2013-02-23 13:01:00,31.4,23.7,29.91,West,262,12.0,12.0,73,0.00,,,0.00,Wunderground v.1.15,2013-02-23 18:01:00,
2013-02-23 13:04:00,31.3,23.3,29.91,SW,227,11.0,12.0,72,0.00,,,0.00,Wunderground v.1.15,2013-02-23 18:04:00,
2013-02-23 13:05:00,31.4,23.4,29.91,SW,227,11.0,12.0,72,0.00,,,0.00,Wunderground v.1.15,2013-02-23 18:05:00,
2013-02-23 13:09:00,31.4,23.7,29.91,WNW,282,9.0,12.0,73,0.00,,,0.00,Wunderground v.1.15,2013-02-23 18:09:00,
2013-02-23 13:11:00,31.5,23.8,29.91,WSW,252,9.0,16.0,73,0.00,,,0.00,Wunderground v.1.15,2013-02-23 18:11:00,
2013-02-23 13:12:00,31.5,23.5,29.91,WSW,252,9.0,16.0,72,0.00,,,0.00,Wunderground v.1.15,2013-02-23 18:12:00,
2013-02-23 13:13:00,31.4,23.4,29.91,WSW,251,10.0,16.0,72,0.00,,,0.00,Wunderground v.1.15,2013-02-23 18:13:00,
2013-02-23 13:15:00,31.4,23.4,29.91,West,261,10.0,16.0,72,0.00,,,0.00,Wunderground v.1.15,2013-02-23 18:15:00,
2013-02-23 13:17:00,31.4,23.4,29.91,WSW,252,10.0,16.0,72,0.00,,,0.00,Wunderground v.1.15,2013-02-23 18:17:00,
2013-02-23 13:19:00,31.4,23.4,29.91,SW,230,10.0,16.0,72,0.00,,,0.00,Wunderground v.1.15,2013-02-23 18:19:00,
2013-02-23 13:21:00,31.4,23.4,29.91,WSW,258,10.0,11.0,72,0.00,,,0.00,Wunderground v.1.15,2013-02-23 18:21:00,
2013-02-23 13:23:00,31.5,23.2,29.91,West,269,10.0,11.0,71,0.00,,,0.00,Wunderground v.1.15,2013-02-23 18:23:00,
2013-02-23 13:24:00,31.5,23.5,29.91,SW,217,10.0,11.0,72,0.00,,,0.00,Wunderground v.1.15,2013-02-23 18:24:00,
2013-02-23 13:25:00,31.4,23.4,29.91,WSW,256,9.0,11.0,72,0.00,,,0.00,Wunderground v.1.15,2013-02-23 18:25:00,
2013-02-23 13:26:00,31.5,23.8,29.91,West,270,9.0,11.0,73,0.00,,,0.00,Wunderground v.1.15,2013-02-23 18:26:00,
2013-02-23 13:29:00,31.4,23.1,29.91,WSW,255,11.0,15.0,71,0.00,,,0.00,Wunderground v.1.15,2013-02-23 18:29:00,
2013-02-23 13:30:00,31.4,23.4,29.91,West,263,10.0,10.0,72,0.00,,,0.00,Wunderground v.1.15,2013-02-23 18:30:00,
2013-02-23 13:31:00,31.4,23.7,29.91,West,271,10.0,12.0,73,0.00,,,0.00,Wunderground v.1.15,2013-02-23 18:31:00,
2013-02-23 13:33:00,31.4,23.7,29.91,West,266,10.0,12.0,73,0.00,,,0.00,Wunderground v.1.15,2013-02-23 18:33:00,
2013-02-23 13:35:00,31.4,23.4,29.91,WSW,241,11.0,12.0,72,0.00,,,0.00,Wunderground v.1.15,2013-02-23 18:35:00,
2013-02-23 13:37:00,31.4,23.4,29.90,West,263,10.0,12.0,72,0.00,,,0.00,Wunderground v.1.15,2013-02-23 18:37:00,
2013-02-23 13:38:00,31.4,23.4,29.90,WSW,258,10.0,12.0,72,0.00,,,0.00,Wunderground v.1.15,2013-02-23 18:38:00,
2013-02-23 13:41:00,31.5,22.8,29.90,WSW,245,10.0,12.0,70,0.00,,,0.00,Wunderground v.1.15,2013-02-23 18:41:00,
2013-02-23 13:43:00,31.5,23.5,29.90,West,267,10.0,12.0,72,0.00,,,0.00,Wunderground v.1.15,2013-02-23 18:43:00,
2013-02-23 13:46:00,31.4,23.4,29.90,WSW,248,10.0,13.0,72,0.00,,,0.00,Wunderground v.1.15,2013-02-23 18:46:00,
2013-02-23 13:48:00,31.4,23.1,29.90,WSW,253,11.0,13.0,71,0.00,,,0.00,Wunderground v.1.15,2013-02-23 18:48:00,
2013-02-23 13:49:00,31.4,23.1,29.90,West,267,11.0,13.0,71,0.00,,,0.00,Wunderground v.1.15,2013-02-23 18:49:00,
2013-02-23 13:52:00,31.4,23.4,29.90,West,271,10.0,11.0,72,0.00,,,0.00,Wunderground v.1.15,2013-02-23 18:52:00,
2013-02-23 13:54:00,31.5,23.2,29.90,WSW,256,10.0,11.0,71,0.00,,,0.00,Wunderground v.1.15,2013-02-23 18:54:00,
2013-02-23 13:57:00,31.6,22.9,29.90,WNW,294,8.0,11.0,70,0.00,,,0.00,Wunderground v.1.15,2013-02-23 18:57:00,
2013-02-23 13:59:00,31.7,23.0,29.90,West,271,7.0,12.0,70,0.00,,,0.00,Wunderground v.1.15,2013-02-23 18:59:00,
2013-02-23 14:00:00,31.7,22.7,29.89,West,263,8.0,10.0,69,0.00,,,0.00,Wunderground v.1.15,2013-02-23 19:00:00,
2013-02-23 14:02:00,31.7,22.3,29.89,West,272,8.0,10.0,68,0.00,,,0.00,Wunderground v.1.15,2013-02-23 19:02:00,
2013-02-23 14:03:00,31.8,22.8,29.89,West,272,8.0,10.0,69,0.00,,,0.00,Wunderground v.1.15,2013-02-23 19:03:00,
2013-02-23 14:06:00,31.8,22.4,29.89,West,263,9.0,14.0,68,0.00,,,0.00,Wunderground v.1.15,2013-02-23 19:06:00,
2013-02-23 14:08:00,31.8,22.4,29.89,West,277,9.0,14.0,68,0.00,,,0.00,Wunderground v.1.15,2013-02-23 19:08:00,
2013-02-23 14:11:00,31.8,22.4,29.89,West,263,9.0,9.0,68,0.00,,,0.00,Wunderground v.1.15,2013-02-23 19:11:00,
2013-02-23 14:12:00,31.8,22.4,29.89,West,277,8.0,9.0,68,0.00,,,0.00,Wunderground v.1.15,2013-02-23 19:12:00,
2013-02-23 14:15:00,31.9,22.5,29.89,West,270,8.0,12.0,68,0.00,,,0.00,Wunderground v.1.15,2013-02-23 19:15:00,
2013-02-23 14:17:00,31.9,22.2,29.89,West,263,8.0,12.0,67,0.00,,,0.00,Wunderground v.1.15,2013-02-23 19:17:00,
2013-02-23 14:19:00,31.9,22.2,29.89,West,268,8.0,12.0,67,0.00,,,0.00,Wunderground v.1.15,2013-02-23 19:19:00,
2013-02-23 14:20:00,31.9,21.8,29.89,West,272,9.0,10.0,66,0.00,,,0.00,Wunderground v.1.15,2013-02-23 19:20:00,
2013-02-23 14:21:00,31.9,22.2,29.89,West,271,9.0,10.0,67,0.00,,,0.00,Wunderground v.1.15,2013-02-23 19:21:00,
2013-02-23 14:25:00,31.9,22.5,29.89,WSW,250,9.0,10.0,68,0.00,,,0.00,Wunderground v.1.15,2013-02-23 19:25:00,
2013-02-23 14:27:00,31.9,22.9,29.89,WSW,252,9.0,10.0,69,0.00,,,0.00,Wunderground v.1.15,2013-02-23 19:27:00,
2013-02-23 14:28:00,31.8,22.8,29.89,SW,228,8.0,10.0,69,0.00,,,0.00,Wunderground v.1.15,2013-02-23 19:28:00,
2013-02-23 14:29:00,31.8,22.8,29.89,West,263,8.0,10.0,69,0.00,,,0.00,Wunderground v.1.15,2013-02-23 19:29:00,
2013-02-23 14:31:00,31.7,23.0,29.89,WSW,255,7.0,10.0,70,0.00,,,0.00,Wunderground v.1.15,2013-02-23 19:31:00,
2013-02-23 14:33:00,31.7,22.7,29.89,WSW,255,8.0,11.0,69,0.00,,,0.00,Wunderground v.1.15,2013-02-23 19:33:00,
2013-02-23 14:35:00,31.7,22.0,29.89,WSW,251,8.0,11.0,67,0.00,,,0.00,Wunderground v.1.15,2013-02-23 19:35:00,
2013-02-23 14:36:00,31.7,22.3,29.89,West,273,8.0,11.0,68,0.00,,,0.00,Wunderground v.1.15,2013-02-23 19:36:00,
2013-02-23 14:40:00,31.7,22.0,29.90,WNW,282,8.0,8.0,67,0.00,,,0.00,Wunderground v.1.15,2013-02-23 19:40:00,
2013-02-23 14:41:00,31.7,22.0,29.90,WSW,254,8.0,8.0,67,0.00,,,0.00,Wunderground v.1.15,2013-02-23 19:41:00,
2013-02-23 14:43:00,31.7,22.7,29.90,SW,234,7.0,8.0,69,0.00,,,0.00,Wunderground v.1.15,2013-02-23 19:43:00,
2013-02-23 14:47:00,31.6,22.2,29.90,SW,218,8.0,9.0,68,0.00,,,0.00,Wunderground v.1.15,2013-02-23 19:47:00,
2013-02-23 14:48:00,31.6,22.6,29.90,WSW,252,8.0,9.0,69,0.00,,,0.00,Wunderground v.1.15,2013-02-23 19:48:00,
2013-02-23 14:49:00,31.6,22.6,29.90,SSW,199,8.0,9.0,69,0.00,,,0.00,Wunderground v.1.15,2013-02-23 19:49:00,
2013-02-23 14:53:00,31.7,21.6,29.90,West,266,8.0,11.0,66,0.00,,,0.00,Wunderground v.1.15,2013-02-23 19:53:00,
2013-02-23 14:54:00,31.7,21.6,29.90,West,273,9.0,11.0,66,0.00,,,0.00,Wunderground v.1.15,2013-02-23 19:54:00,
2013-02-23 14:55:00,31.7,22.0,29.90,West,276,9.0,11.0,67,0.00,,,0.00,Wunderground v.1.15,2013-02-23 19:55:00,
2013-02-23 14:58:00,31.7,22.7,29.90,WSW,248,9.0,14.0,69,0.00,,,0.00,Wunderground v.1.15,2013-02-23 19:58:00,
2013-02-23 14:59:00,31.7,22.3,29.90,WSW,238,9.0,14.0,68,0.00,,,0.00,Wunderground v.1.15,2013-02-23 19:59:00,
2013-02-23 15:00:00,31.7,22.3,29.90,West,264,10.0,11.0,68,0.00,,,0.00,Wunderground v.1.15,2013-02-23 20:00:00,
2013-02-23 15:03:00,31.6,22.6,29.90,SW,232,10.0,11.0,69,0.00,,,0.00,Wunderground v.1.15,2013-02-23 20:03:00,
2013-02-23 15:06:00,31.6,22.6,29.90,West,268,9.0,11.0,69,0.00,,,0.00,Wunderground v.1.15,2013-02-23 20:06:00,
2013-02-23 15:08:00,31.6,22.6,29.90,WSW,247,9.0,11.0,69,0.00,,,0.00,Wunderground v.1.15,2013-02-23 20:08:00,
2013-02-23 15:09:00,31.6,22.6,29.90,WNW,289,9.0,11.0,69,0.00,,,0.00,Wunderground v.1.15,2013-02-23 20:09:00,
2013-02-23 15:11:00,31.5,22.5,29.90,WSW,252,9.0,10.0,69,0.00,,,0.00,Wunderground v.1.15,2013-02-23 20:11:00,
2013-02-23 15:13:00,31.5,22.5,29.90,West,270,9.0,10.0,69,0.00,,,0.00,Wunderground v.1.15,2013-02-23 20:13:00,
2013-02-23 15:14:00,31.5,22.5,29.89,West,275,9.0,10.0,69,0.00,,,0.00,Wunderground v.1.15,2013-02-23 20:14:00,
2013-02-23 15:17:00,31.4,22.7,29.89,West,260,9.0,10.0,70,0.00,,,0.00,Wunderground v.1.15,2013-02-23 20:17:00,
2013-02-23 15:21:00,31.4,22.1,29.89,WSW,249,9.0,12.0,68,0.00,,,0.00,Wunderground v.1.15,2013-02-23 20:21:00,
2013-02-23 15:23:00,31.4,22.4,29.89,West,263,9.0,12.0,69,0.00,,,0.00,Wunderground v.1.15,2013-02-23 20:23:00,
2013-02-23 15:24:00,31.4,22.7,29.89,WSW,246,9.0,12.0,70,0.00,,,0.00,Wunderground v.1.15,2013-02-23 20:24:00,
2013-02-23 15:28:00,31.4,22.4,29.89,WSW,251,9.0,12.0,69,0.00,,,0.00,Wunderground v.1.15,2013-02-23 20:28:00,
2013-02-23 15:29:00,31.4,22.7,29.89,West,262,9.0,12.0,70,0.00,,,0.00,Wunderground v.1.15,2013-02-23 20:29:00,
2013-02-23 15:31:00,31.4,22.4,29.89,WNW,284,9.0,10.0,69,0.00,,,0.00,Wunderground v.1.15,2013-02-23 20:31:00,
2013-02-23 15:34:00,31.4,22.1,29.89,SW,219,9.0,11.0,68,0.00,,,0.00,Wunderground v.1.15,2013-02-23 20:34:00,
2013-02-23 15:36:00,31.4,22.1,29.89,West,281,9.0,11.0,68,0.00,,,0.00,Wunderground v.1.15,2013-02-23 20:36:00,
2013-02-23 15:39:00,31.4,22.1,29.89,West,277,9.0,11.0,68,0.00,,,0.00,Wunderground v.1.15,2013-02-23 20:39:00,
2013-02-23 15:41:00,31.4,21.7,29.90,West,270,9.0,9.0,67,0.00,,,0.00,Wunderground v.1.15,2013-02-23 20:41:00,
2013-02-23 15:43:00,31.4,21.7,29.90,West,270,8.0,9.0,67,0.00,,,0.00,Wunderground v.1.15,2013-02-23 20:43:00,
2013-02-23 15:44:00,31.4,21.7,29.89,West,266,8.0,9.0,67,0.00,,,0.00,Wunderground v.1.15,2013-02-23 20:44:00,
2013-02-23 15:46:00,31.4,21.7,29.89,West,260,9.0,9.0,67,0.00,,,0.00,Wunderground v.1.15,2013-02-23 20:46:00,
2013-02-23 15:49:00,31.4,22.1,29.90,West,270,8.0,8.0,68,0.00,,,0.00,Wunderground v.1.15,2013-02-23 20:49:00,
2013-02-23 15:51:00,31.4,22.4,29.90,West,273,8.0,8.0,69,0.00,,,0.00,Wunderground v.1.15,2013-02-23 20:51:00,
2013-02-23 15:52:00,31.4,22.7,29.90,West,277,7.0,8.0,70,0.00,,,0.00,Wunderground v.1.15,2013-02-23 20:52:00,
2013-02-23 15:57:00,31.4,22.4,29.90,West,270,5.0,8.0,69,0.00,,,0.00,Wunderground v.1.15,2013-02-23 20:57:00,
2013-02-23 15:58:00,31.4,22.7,29.90,West,273,5.0,8.0,70,0.00,,,0.00,Wunderground v.1.15,2013-02-23 20:58:00,
2013-02-23 15:59:00,31.4,22.4,29.90,West,270,5.0,8.0,69,0.00,,,0.00,Wunderground v.1.15,2013-02-23 20:59:00,
2013-02-23 16:03:00,31.4,22.1,29.90,West,275,6.0,6.0,68,0.00,,,0.00,Wunderground v.1.15,2013-02-23 21:03:00,
2013-02-23 16:05:00,31.4,22.4,29.90,WNW,291,5.0,6.0,69,0.00,,,0.00,Wunderground v.1.15,2013-02-23 21:05:00,
2013-02-23 16:09:00,31.3,21.6,29.90,West,273,6.0,9.0,67,0.00,,,0.00,Wunderground v.1.15,2013-02-23 21:09:00,
2013-02-23 16:10:00,31.3,22.0,29.90,WNW,292,6.0,6.0,68,0.00,,,0.00,Wunderground v.1.15,2013-02-23 21:10:00,
2013-02-23 16:12:00,31.2,22.2,29.90,WNW,282,5.0,7.0,69,0.00,,,0.00,Wunderground v.1.15,2013-02-23 21:12:00,
2013-02-23 16:15:00,31.2,21.9,29.90,West,270,7.0,10.0,68,0.00,,,0.00,Wunderground v.1.15,2013-02-23 21:15:00,
2013-02-23 16:16:00,31.1,21.8,29.90,West,259,7.0,10.0,68,0.00,,,0.00,Wunderground v.1.15,2013-02-23 21:16:00,
2013-02-23 16:20:00,31.0,22.0,29.90,West,279,7.0,7.0,69,0.00,,,0.00,Wunderground v.1.15,2013-02-23 21:20:00,
2013-02-23 16:21:00,31.0,21.7,29.90,West,274,8.0,9.0,68,0.00,,,0.00,Wunderground v.1.15,2013-02-23 21:21:00,
2013-02-23 16:22:00,31.0,21.7,29.90,WSW,241,8.0,9.0,68,0.00,,,0.00,Wunderground v.1.15,2013-02-23 21:22:00,
2013-02-23 16:26:00,31.0,22.0,29.90,West,273,8.0,9.0,69,0.00,,,0.00,Wunderground v.1.15,2013-02-23 21:26:00,
2013-02-23 16:29:00,30.9,22.6,29.90,West,270,7.0,9.0,71,0.00,,,0.00,Wunderground v.1.15,2013-02-23 21:29:00,
2013-02-23 16:30:00,30.9,22.6,29.90,West,263,7.0,7.0,71,0.00,,,0.00,Wunderground v.1.15,2013-02-23 21:30:00,
2013-02-23 16:32:00,30.8,22.5,29.90,WNW,282,7.0,7.0,71,0.00,,,0.00,Wunderground v.1.15,2013-02-23 21:32:00,
2013-02-23 16:34:00,30.8,21.8,29.90,West,271,6.0,7.0,69,0.00,,,0.00,Wunderground v.1.15,2013-02-23 21:34:00,
2013-02-23 16:38:00,30.8,22.2,29.90,West,266,5.0,7.0,70,0.00,,,0.00,Wunderground v.1.15,2013-02-23 21:38:00,
2013-02-23 16:40:00,30.9,21.9,29.90,West,280,4.0,5.0,69,0.00,,,0.00,Wunderground v.1.15,2013-02-23 21:40:00,
2013-02-23 16:41:00,30.9,21.6,29.90,West,273,4.0,5.0,68,0.00,,,0.00,Wunderground v.1.15,2013-02-23 21:41:00,
2013-02-23 16:43:00,30.9,21.9,29.90,West,261,4.0,5.0,69,0.00,,,0.00,Wunderground v.1.15,2013-02-23 21:43:00,
2013-02-23 16:45:00,30.9,22.3,29.90,West,265,4.0,7.0,70,0.00,,,0.00,Wunderground v.1.15,2013-02-23 21:45:00,
2013-02-23 16:47:00,30.9,21.9,29.90,West,277,5.0,7.0,69,0.00,,,0.00,Wunderground v.1.15,2013-02-23 21:47:00,
2013-02-23 16:48:00,30.9,21.9,29.90,West,264,5.0,7.0,69,0.00,,,0.00,Wunderground v.1.15,2013-02-23 21:48:00,
2013-02-23 16:50:00,30.9,21.9,29.90,SW,235,5.0,5.0,69,0.00,,,0.00,Wunderground v.1.15,2013-02-23 21:50:00,
2013-02-23 16:53:00,30.8,21.8,29.90,West,280,5.0,6.0,69,0.00,,,0.00,Wunderground v.1.15,2013-02-23 21:53:00,
2013-02-23 16:55:00,30.9,21.9,29.90,West,264,5.0,6.0,69,0.00,,,0.00,Wunderground v.1.15,2013-02-23 21:55:00,
2013-02-23 16:58:00,30.9,21.6,29.90,West,267,6.0,6.0,68,0.00,,,0.00,Wunderground v.1.15,2013-02-23 21:58:00,
2013-02-23 17:02:00,30.9,21.2,29.90,West,268,6.0,7.0,67,0.00,,,0.00,Wunderground v.1.15,2013-02-23 22:02:00,
2013-02-23 17:04:00,30.9,21.2,29.90,West,277,7.0,9.0,67,0.00,,,0.00,Wunderground v.1.15,2013-02-23 22:04:00,
2013-02-23 17:05:00,30.9,21.2,29.90,WSW,237,7.0,9.0,67,0.00,,,0.00,Wunderground v.1.15,2013-02-23 22:05:00,
2013-02-23 17:09:00,30.8,21.8,29.90,WSW,256,7.0,9.0,69,0.00,,,0.00,Wunderground v.1.15,2013-02-23 22:09:00,
2013-02-23 17:10:00,30.8,22.2,29.90,West,270,7.0,7.0,70,0.00,,,0.00,Wunderground v.1.15,2013-02-23 22:10:00,
2013-02-23 17:11:00,30.7,21.7,29.90,West,277,7.0,9.0,69,0.00,,,0.00,Wunderground v.1.15,2013-02-23 22:11:00,
2013-02-23 17:14:00,30.7,21.7,29.90,WSW,245,6.0,9.0,69,0.00,,,0.00,Wunderground v.1.15,2013-02-23 22:14:00,
2013-02-23 17:16:00,30.7,21.7,29.90,WSW,246,6.0,9.0,69,0.00,,,0.00,Wunderground v.1.15,2013-02-23 22:16:00,
2013-02-23 17:19:00,30.7,22.1,29.90,West,276,6.0,9.0,70,0.00,,,0.00,Wunderground v.1.15,2013-02-23 22:19:00,
2013-02-23 17:22:00,30.6,22.3,29.91,WSW,255,6.0,7.0,71,0.00,,,0.00,Wunderground v.1.15,2013-02-23 22:22:00,
2013-02-23 17:24:00,30.5,22.5,29.91,West,277,6.0,7.0,72,0.00,,,0.00,Wunderground v.1.15,2013-02-23 22:24:00,
2013-02-23 17:25:00,30.5,22.2,29.91,WSW,243,6.0,7.0,71,0.00,,,0.00,Wunderground v.1.15,2013-02-23 22:25:00,
2013-02-23 17:26:00,30.4,22.1,29.91,WSW,248,6.0,7.0,71,0.00,,,0.00,Wunderground v.1.15,2013-02-23 22:26:00,
2013-02-23 17:27:00,30.4,22.4,29.91,West,273,6.0,7.0,72,0.00,,,0.00,Wunderground v.1.15,2013-02-23 22:27:00,
2013-02-23 17:30:00,30.4,22.1,29.91,West,273,6.0,6.0,71,0.00,,,0.00,Wunderground v.1.15,2013-02-23 22:30:00,
2013-02-23 17:31:00,30.4,22.1,29.91,West,277,6.0,6.0,71,0.00,,,0.00,Wunderground v.1.15,2013-02-23 22:31:00,
2013-02-23 17:33:00,30.4,22.1,29.91,West,273,6.0,6.0,71,0.00,,,0.00,Wunderground v.1.15,2013-02-23 22:33:00,